BREEZE-KM R/B, 40923

Orbit data source: Space-Track

BREEZE-KM R/B, 40923 is space debris in LEO originally from a launch on Wed, 23 Sep 2015 UTC launched from the Plesetsk Missile And Space Complex (PKMTR). Debris objects in space refer to the collection of defunct objects orbiting the Earth. Examples of debris include non-operational satellites, rocket bodies, and fragments generated from explosions, collisions, or faulty payload assembly.

Loading next visibility...
Identifier
40923, 2015-050D
Orbit
LEO
Country
Flag of CISCIS
Related business
Manufacturer
Khrunichev
Mission
Spacecraft
Bus & Motor
BRIZ, S5.92
Mass
2,370 kg wet, 2,370 kg dry
Launch date (UTC)
2015-09-23 (10 years ago)
Launch vehicle
Unknown
Launch site
Plesetsk Missile And Space Complex (PKMTR)
Object type
Payload
Rocket body
Debris
Shape & HBR
Hex Cyl + 1 Rod, 2.0 m
Radar Cross Section
10.190 m², Large (>1 m²)

Expand to show TLE details & history
Last TLE update: 1 day ago

TLE from 1 day ago
0 BREEZE-KM R/B
1 40923U 15050D   25259.97128133  .00000040  00000-0  11397-3 0  9994
2 40923  82.4834  83.8809 0202946  21.7281 339.2278 12.80438681466606
Epoch: 2025-09-16T23:18Z
TLE epoch observation values (Epoch: 2025-09-16T23:18:38.706Z)
Latitude
-0.00001°
Longitude
98.06569°
Altitude
1,196.397 km
Speed
7.324 km/s
True Right ascension
05h 35m 31s
True Declination
0° 00' 00"
Sunlit
Object was in daylight at epoch
Visualization orbit readout
Latitude
Unknown
Longitude
Unknown
Altitude
Unknown
Speed
Unknown
Apparent Right ascension
Unknown
Apparent Declination
Unknown
Sunlit
N/A
Visualization observer readout
Local Sidereal Time
21:07:19
Azimuth
Unknown
Elevation
Unknown
Doppler factor
Unknown
Orbital elements
Apogee altitude
1,493.58 km
Perigee altitude
1,180.428 km
Semi-major axis
7,715.141 km
Eccentricity
0.02029
Inclination
82.4834°
RAAN
83.8809°
Arg. of periapsis
21.7281°
True anomaly
338.38303°
Mean anomaly
339.2278°
Eccentric anomaly
338.80745°
Mean motion
3.20278 °/min
Orbital period
112.4 mins
BSTAR
0.00011397
Loading maneuver chart data...
Computing Atmospheric mass density...
Loading historical data...
Loading historical data...
Loading historical data...
Loading historical data...
Loading historical data...
Loading historical data...
Loading historical data...
Other satellites on launch #50 in the year 2015 (2015-09-23 UTC)

Documentation

Showing up to 5 results
|